| time (UTC) | temp F | wind direction | speed MPH | gust MPH | rain 1hr in | rain 24hr in | rain mn in | humidity % | barometer mb |
| 20260506160700 | 74 | 243 | 1.0 | 4.0 | 0.00 | 0.00 | 0.00 | 32 | 1064.8 |
| 20260506160156 | 75 | 269 | 0.0 | 4.0 | 0.00 | 0.00 | 0.00 | 30 | 1064.8 |
| 20260506155655 | 74 | 293 | 2.0 | 4.0 | 0.00 | 0.00 | 0.00 | 32 | 1064.8 |
| 20260506155151 | 72 | 289 | 0.0 | 4.0 | 0.00 | 0.00 | 0.00 | 34 | 1064.8 |
| 20260506153254 | 73 | 305 | 4.0 | 4.0 | 0.00 | 0.00 | 0.00 | 33 | 1064.8 |
| 20260506152750 | 73 | 302 | 2.0 | 3.0 | 0.00 | 0.00 | 0.00 | 33 | 1064.6 |
| 20260506152248 | 73 | 279 | 1.0 | 3.0 | 0.00 | 0.00 | 0.00 | 33 | 1064.8 |
| 20260506151747 | 72 | 251 | 1.0 | 4.0 | 0.00 | 0.00 | 0.00 | 34 | 1064.9 |
| 20260506151243 | 72 | 253 | 2.0 | 2.0 | 0.00 | 0.00 | 0.00 | 34 | 1064.9 |
| 20260506150739 | 71 | 294 | 2.0 | 3.0 | 0.00 | 0.00 | 0.00 | 35 | 1064.7 |
| 20260506150237 | 71 | 48 | 0.0 | 2.0 | 0.00 | 0.00 | 0.00 | 37 | 1064.6 |
| 20260506145734 | 70 | 318 | 2.0 | 3.0 | 0.00 | 0.00 | 0.00 | 38 | 1064.8 |
| 20260506145230 | 70 | 292 | 0.0 | 2.0 | 0.00 | 0.00 | 0.00 | 38 | 1064.6 |
| 20260506144727 | 69 | 336 | 0.0 | 2.0 | 0.00 | 0.00 | 0.00 | 40 | 1064.6 |
| 20260506144224 | 68 | 315 | 0.0 | 3.0 | 0.00 | 0.00 | 0.00 | 41 | 1064.6 |
| 20260506143722 | 68 | 342 | 2.0 | 2.0 | 0.00 | 0.00 | 0.00 | 40 | 1064.7 |
| 20260506143219 | 66 | 336 | 0.0 | 1.0 | 0.00 | 0.00 | 0.00 | 41 | 1064.7 |
| 20260506142718 | 64 | 312 | 2.0 | 2.0 | 0.00 | 0.00 | 0.00 | 43 | 1064.6 |
| 20260506142215 | 64 | 351 | 2.0 | 3.0 | 0.00 | 0.00 | 0.00 | 45 | 1064.6 |
| 20260506141713 | 63 | 343 | 2.0 | 4.0 | 0.00 | 0.00 | 0.00 | 46 | 1064.3 |
| 20260506141211 | 61 | 5 | 0.0 | 2.0 | 0.00 | 0.00 | 0.00 | 51 | 1064.4 |
| 20260506140709 | 60 | 269 | 0.0 | 2.0 | 0.00 | 0.00 | 0.00 | 52 | 1064.3 |
| 20260506140205 | 59 | 292 | 1.0 | 1.0 | 0.00 | 0.00 | 0.00 | 53 | 1064.4 |
| 20260506135702 | 58 | 69 | 0.0 | 1.0 | 0.00 | 0.00 | 0.00 | 54 | 1064.1 |
| 20260506135159 | 58 | 348 | 1.0 | 2.0 | 0.00 | 0.00 | 0.00 | 55 | 1064.1 |
| 20260506134655 | 57 | 7 | 2.0 | 2.0 | 0.00 | 0.00 | 0.00 | 56 | 1064.2 |
| 20260506134151 | 57 | 358 | 1.0 | 2.0 | 0.00 | 0.00 | 0.00 | 56 | 1064.2 |
| 20260506133649 | 56 | 319 | 0.0 | 2.0 | 0.00 | 0.00 | 0.00 | 56 | 1064.3 |
| 20260506133145 | 55 | 13 | 1.0 | 2.0 | 0.00 | 0.00 | 0.00 | 58 | 1064.2 |
| 20260506132643 | 55 | 335 | 1.0 | 2.0 | 0.00 | 0.00 | 0.00 | 59 | 1064.0 |
| 20260506132139 | 54 | 49 | 0.0 | 2.0 | 0.00 | 0.00 | 0.00 | 61 | 1064.0 |
| 20260506131637 | 54 | 281 | 0.0 | 2.0 | 0.00 | 0.00 | 0.00 | 61 | 1064.1 |
| 20260506131133 | 54 | 357 | 0.0 | 2.0 | 0.00 | 0.00 | 0.00 | 60 | 1063.8 |
| 20260506130630 | 53 | 284 | 0.0 | 1.0 | 0.00 | 0.00 | 0.00 | 61 | 1063.8 |
| 20260506130128 | 53 | 324 | 0.0 | 1.0 | 0.00 | 0.00 | 0.00 | 62 | 1063.8 |
| 20260506125626 | 53 | 326 | 0.0 | 1.0 | 0.00 | 0.00 | 0.00 | 62 | 1063.6 |
| 20260506125123 | 53 | 45 | 0.0 | 1.0 | 0.00 | 0.00 | 0.00 | 60 | 1063.6 |
| 20260506124621 | 53 | 326 | 0.0 | 1.0 | 0.00 | 0.00 | 0.00 | 61 | 1063.5 |
| 20260506124118 | 53 | 102 | 0.0 | 2.0 | 0.00 | 0.00 | 0.00 | 64 | 1063.6 |
| 20260506123616 | 52 | 19 | 0.0 | 2.0 | 0.00 | 0.00 | 0.00 | 65 | 1063.6 |
| 20260506123114 | 52 | 52 | 0.0 | 1.0 | 0.00 | 0.00 | 0.00 | 66 | 1063.4 |
| 20260506122610 | 52 | 293 | 0.0 | 1.0 | 0.00 | 0.00 | 0.00 | 63 | 1063.4 |
| 20260506122109 | 53 | 315 | 0.0 | 2.0 | 0.00 | 0.00 | 0.00 | 63 | 1063.2 |
| 20260506121606 | 53 | 9 | 0.0 | 2.0 | 0.00 | 0.00 | 0.00 | 62 | 1063.2 |
| 20260506121102 | 54 | 291 | 0.0 | 2.0 | 0.00 | 0.00 | 0.00 | 59 | 1063.2 |
| 20260506120600 | 54 | 150 | 0.0 | 2.0 | 0.00 | 0.00 | 0.00 | 59 | 1063.4 |
| 20260506120057 | 54 | 74 | 0.0 | 1.0 | 0.00 | 0.00 | 0.00 | 60 | 1062.9 |
| 20260506115555 | 54 | 74 | 0.0 | 1.0 | 0.00 | 0.00 | 0.00 | 60 | 1063.0 |
| 20260506115053 | 54 | 22 | 0.0 | 2.0 | 0.00 | 0.00 | 0.00 | 60 | 1062.9 |
| 20260506114550 | 55 | 343 | 2.0 | 2.0 | 0.00 | 0.00 | 0.00 | 60 | 1063.2 |
| 20260506114048 | 54 | 168 | 1.0 | 2.0 | 0.00 | 0.00 | 0.00 | 61 | 1063.0 |
| 20260506113546 | 53 | 44 | 0.0 | 2.0 | 0.00 | 0.00 | 0.00 | 65 | 1063.2 |
| 20260506113043 | 53 | 271 | 0.0 | 2.0 | 0.00 | 0.00 | 0.00 | 65 | 1063.0 |
| 20260506112540 | 53 | 76 | 0.0 | 1.0 | 0.00 | 0.00 | 0.00 | 66 | 1063.0 |
| 20260506112037 | 53 | 354 | 0.0 | 1.0 | 0.00 | 0.00 | 0.00 | 65 | 1063.2 |
| 20260506111535 | 54 | 322 | 0.0 | 1.0 | 0.00 | 0.00 | 0.00 | 65 | 1063.0 |
| 20260506111032 | 54 | 228 | 1.0 | 2.0 | 0.00 | 0.00 | 0.00 | 64 | 1062.9 |
| 20260506110530 | 54 | 303 | 0.0 | 0.0 | 0.00 | 0.00 | 0.00 | 63 | 1062.9 |
| 20260506110027 | 54 | 269 | 0.0 | 1.0 | 0.00 | 0.00 | 0.00 | 62 | 1063.0 |
| 20260506105522 | 54 | 17 | 2.0 | 2.0 | 0.00 | 0.00 | 0.00 | 63 | 1062.7 |
| 20260506105020 | 54 | 349 | 1.0 | 3.0 | 0.00 | 0.00 | 0.00 | 63 | 1062.8 |
| 20260506104518 | 54 | 321 | 0.0 | 1.0 | 0.00 | 0.00 | 0.00 | 64 | 1062.7 |
| 20260506104016 | 54 | 317 | 1.0 | 2.0 | 0.00 | 0.00 | 0.00 | 65 | 1062.6 |
| 20260506103513 | 54 | 296 | 0.0 | 0.0 | 0.00 | 0.00 | 0.00 | 64 | 1062.7 |
| 20260506103009 | 55 | 265 | 0.0 | 2.0 | 0.00 | 0.00 | 0.00 | 63 | 1062.7 |
| 20260506102508 | 55 | 306 | 0.0 | 1.0 | 0.00 | 0.00 | 0.00 | 63 | 1062.7 |
| 20260506102005 | 55 | 246 | 0.0 | 1.0 | 0.00 | 0.00 | 0.00 | 64 | 1062.6 |
| 20260506101501 | 55 | 275 | 0.0 | 0.0 | 0.00 | 0.00 | 0.00 | 63 | 1062.5 |
| 20260506100958 | 55 | 326 | 0.0 | 0.0 | 0.00 | 0.00 | 0.00 | 64 | 1062.6 |
| 20260506100457 | 55 | 55 | 0.0 | 1.0 | 0.00 | 0.00 | 0.00 | 64 | 1062.5 |
| 20260506095954 | 55 | 229 | 0.0 | 1.0 | 0.00 | 0.00 | 0.00 | 62 | 1062.6 |
| 20260506095453 | 55 | 309 | 0.0 | 1.0 | 0.00 | 0.00 | 0.00 | 62 | 1062.4 |
| 20260506094948 | 56 | 304 | 0.0 | 0.0 | 0.00 | 0.00 | 0.00 | 60 | 1062.5 |
| 20260506094447 | 56 | 242 | 1.0 | 1.0 | 0.00 | 0.00 | 0.00 | 60 | 1062.3 |
| 20260506093944 | 57 | 324 | 0.0 | 2.0 | 0.00 | 0.00 | 0.00 | 60 | 1062.3 |
| 20260506093442 | 57 | 200 | 0.0 | 2.0 | 0.00 | 0.00 | 0.00 | 59 | 1062.4 |
| 20260506092940 | 56 | 321 | 0.0 | 2.0 | 0.00 | 0.00 | 0.00 | 60 | 1062.2 |
| 20260506092438 | 56 | 243 | 0.0 | 1.0 | 0.00 | 0.00 | 0.00 | 61 | 1062.2 |
| 20260506091934 | 56 | 332 | 0.0 | 2.0 | 0.00 | 0.00 | 0.00 | 61 | 1062.2 |
| 20260506091432 | 56 | 325 | 0.0 | 2.0 | 0.00 | 0.00 | 0.00 | 59 | 1062.3 |
| 20260506090929 | 57 | 11 | 0.0 | 2.0 | 0.00 | 0.00 | 0.00 | 59 | 1062.2 |
| 20260506090427 | 57 | 322 | 0.0 | 0.0 | 0.00 | 0.00 | 0.00 | 59 | 1062.1 |
| 20260506085923 | 57 | 309 | 0.0 | 0.0 | 0.00 | 0.00 | 0.00 | 56 | 1062.0 |
| 20260506085420 | 57 | 224 | 0.0 | 0.0 | 0.00 | 0.00 | 0.00 | 56 | 1061.9 |
| 20260506084916 | 57 | 191 | 0.0 | 1.0 | 0.00 | 0.00 | 0.00 | 56 | 1062.1 |
| 20260506084413 | 58 | 309 | 0.0 | 0.0 | 0.00 | 0.00 | 0.00 | 56 | 1062.2 |
| 20260506083909 | 58 | 171 | 0.0 | 2.0 | 0.00 | 0.00 | 0.00 | 55 | 1062.1 |
| 20260506083407 | 58 | 217 | 0.0 | 0.0 | 0.00 | 0.00 | 0.00 | 57 | 1062.1 |
| 20260506082904 | 57 | 227 | 0.0 | 1.0 | 0.00 | 0.00 | 0.00 | 57 | 1061.9 |
| 20260506082401 | 57 | 256 | 0.0 | 0.0 | 0.00 | 0.00 | 0.00 | 56 | 1062.2 |
| 20260506081856 | 57 | 202 | 0.0 | 1.0 | 0.00 | 0.00 | 0.00 | 56 | 1062.1 |
| 20260506081355 | 57 | 14 | 1.0 | 1.0 | 0.00 | 0.00 | 0.00 | 56 | 1062.1 |
| 20260506080852 | 57 | 315 | 0.0 | 1.0 | 0.00 | 0.00 | 0.00 | 57 | 1062.3 |
| 20260506080349 | 58 | 320 | 0.0 | 2.0 | 0.00 | 0.00 | 0.00 | 55 | 1062.2 |
| 20260506073333 | 59 | 309 | 0.0 | 0.0 | 0.00 | 0.00 | 0.00 | 54 | 1062.2 |
| 20260506072830 | 59 | 311 | 0.0 | 0.0 | 0.00 | 0.00 | 0.00 | 51 | 1062.0 |
| 20260506072327 | 60 | 326 | 0.0 | 0.0 | 0.00 | 0.00 | 0.00 | 49 | 1062.0 |
| 20260506071825 | 60 | 326 | 0.0 | 1.0 | 0.00 | 0.00 | 0.00 | 48 | 1061.9 |
| 20260506071323 | 60 | 243 | 0.0 | 0.0 | 0.00 | 0.00 | 0.00 | 50 | 1062.0 |
| 20260506070820 | 60 | 322 | 0.0 | 0.0 | 0.00 | 0.00 | 0.00 | 51 | 1062.0 |
| 20260506070316 | 60 | 230 | 0.0 | 0.0 | 0.00 | 0.00 | 0.00 | 52 | 1061.9 |
| 20260506062254 | 63 | 315 | 0.0 | 1.0 | 0.00 | 0.10 | 0.10 | 43 | 1061.6 |
| 20260506061749 | 64 | 229 | 0.0 | 2.0 | 0.00 | 0.10 | 0.10 | 40 | 1061.8 |
| 20260506061247 | 64 | 226 | 2.0 | 2.0 | 0.00 | 0.10 | 0.10 | 40 | 1061.7 |
| 20260506060745 | 64 | 273 | 0.0 | 2.0 | 0.00 | 0.10 | 0.10 | 40 | 1061.7 |
| 20260506060243 | 64 | 232 | 1.0 | 2.0 | 0.00 | 0.10 | 0.10 | 41 | 1061.6 |
| 20260506051214 | 66 | 237 | 1.0 | 2.0 | 0.00 | 0.10 | 0.10 | 37 | 1061.4 |
| 20260506050713 | 67 | 221 | 2.0 | 2.0 | 0.00 | 0.10 | 0.10 | 37 | 1061.5 |
| 20260506050209 | 67 | 254 | 2.0 | 2.0 | 0.00 | 0.10 | 0.10 | 35 | 1061.4 |
| 20260506044700 | 68 | 246 | 1.0 | 3.0 | 0.00 | 0.10 | 0.10 | 34 | 1061.1 |
| 20260506044157 | 68 | 306 | 2.0 | 2.0 | 0.00 | 0.10 | 0.10 | 34 | 1061.1 |
| 20260506043654 | 68 | 235 | 0.0 | 3.0 | 0.00 | 0.10 | 0.10 | 34 | 1061.1 |
| 20260506043152 | 68 | 272 | 1.0 | 3.0 | 0.00 | 0.10 | 0.10 | 33 | 1061.2 |
| 20260506042651 | 68 | 303 | 2.0 | 2.0 | 0.00 | 0.10 | 0.10 | 33 | 1061.0 |
| 20260506042149 | 69 | 206 | 1.0 | 4.0 | 0.00 | 0.10 | 0.10 | 32 | 1061.2 |
| 20260506041652 | 68 | 314 | 1.0 | 3.0 | 0.00 | 0.10 | 0.10 | 32 | 1060.9 |
| 20260506041143 | 69 | 304 | 0.0 | 2.0 | 0.00 | 0.10 | 0.10 | 32 | 1060.8 |
| 20260506040641 | 69 | 285 | 2.0 | 3.0 | 0.00 | 0.10 | 0.10 | 31 | 1060.8 |
| 20260506040138 | 69 | 283 | 1.0 | 3.0 | 0.00 | 0.10 | 0.10 | 32 | 1060.9 |
| 20260506035635 | 69 | 283 | 0.0 | 3.0 | 0.00 | 0.10 | 0.10 | 31 | 1060.9 |
| 20260506035131 | 69 | 272 | 2.0 | 3.0 | 0.00 | 0.10 | 0.10 | 31 | 1060.6 |
| 20260506034628 | 70 | 214 | 6.0 | 6.0 | 0.00 | 0.10 | 0.10 | 30 | 1060.6 |
| 20260506034125 | 70 | 294 | 2.0 | 5.0 | 0.00 | 0.10 | 0.10 | 30 | 1060.6 |
| 20260506033623 | 70 | 299 | 0.0 | 4.0 | 0.00 | 0.10 | 0.10 | 31 | 1060.4 |
| 20260506033120 | 70 | 274 | 2.0 | 3.0 | 0.00 | 0.10 | 0.10 | 30 | 1060.1 |
| 20260506032617 | 70 | 299 | 3.0 | 4.0 | 0.00 | 0.10 | 0.10 | 30 | 1060.1 |
| 20260506032114 | 71 | 283 | 0.0 | 5.0 | 0.00 | 0.10 | 0.10 | 30 | 1060.1 |
| 20260506031611 | 71 | 274 | 2.0 | 5.0 | 0.00 | 0.10 | 0.10 | 29 | 1060.3 |
| 20260506031108 | 71 | 290 | 2.0 | 6.0 | 0.00 | 0.10 | 0.10 | 29 | 1060.1 |
| 20260506030606 | 71 | 296 | 1.0 | 6.0 | 0.00 | 0.10 | 0.10 | 29 | 1059.9 |
| 20260506030103 | 71 | 2 | 2.0 | 6.0 | 0.00 | 0.10 | 0.10 | 29 | 1059.9 |
| 20260506025600 | 71 | 241 | 0.0 | 5.0 | 0.00 | 0.10 | 0.10 | 29 | 1059.8 |
| 20260506025056 | 71 | 299 | 2.0 | 4.0 | 0.00 | 0.10 | 0.10 | 29 | 1059.6 |
| 20260506024553 | 72 | 323 | 2.0 | 5.0 | 0.00 | 0.10 | 0.10 | 28 | 1059.5 |
| 20260506024050 | 72 | 281 | 2.0 | 6.0 | 0.00 | 0.10 | 0.10 | 28 | 1059.5 |
| 20260506023545 | 72 | 277 | 2.0 | 5.0 | 0.00 | 0.10 | 0.10 | 28 | 1059.5 |
| 20260506023043 | 72 | 302 | 3.0 | 4.0 | 0.00 | 0.10 | 0.10 | 28 | 1059.3 |
| 20260506022541 | 73 | 294 | 3.0 | 7.0 | 0.00 | 0.10 | 0.10 | 27 | 1059.3 |
| 20260506022038 | 73 | 301 | 1.0 | 8.0 | 0.00 | 0.10 | 0.10 | 27 | 1059.3 |
| 20260506021535 | 73 | 303 | 4.0 | 6.0 | 0.00 | 0.10 | 0.10 | 27 | 1059.1 |
| 20260506021033 | 73 | 308 | 3.0 | 4.0 | 0.00 | 0.10 | 0.10 | 27 | 1058.9 |
| 20260506020530 | 73 | 274 | 3.0 | 5.0 | 0.00 | 0.10 | 0.10 | 26 | 1059.0 |
| 20260506020027 | 73 | 249 | 4.0 | 6.0 | 0.00 | 0.10 | 0.10 | 27 | 1059.0 |
| 20260506015525 | 74 | 251 | 3.0 | 5.0 | 0.00 | 0.10 | 0.10 | 27 | 1058.9 |
| 20260506015021 | 74 | 301 | 1.0 | 9.0 | 0.00 | 0.10 | 0.10 | 27 | 1059.0 |
| 20260506014519 | 74 | 292 | 3.0 | 7.0 | 0.00 | 0.10 | 0.10 | 26 | 1058.9 |
| 20260506014015 | 74 | 242 | 4.0 | 11.0 | 0.00 | 0.10 | 0.10 | 26 | 1058.7 |
| 20260506013513 | 75 | 265 | 2.0 | 6.0 | 0.00 | 0.10 | 0.10 | 26 | 1058.7 |
| 20260506013009 | 75 | 294 | 4.0 | 6.0 | 0.00 | 0.10 | 0.10 | 26 | 1059.0 |
| 20260506012505 | 75 | 210 | 2.0 | 6.0 | 0.00 | 0.10 | 0.10 | 26 | 1058.8 |
| 20260506012002 | 76 | 293 | 4.0 | 9.0 | 0.00 | 0.10 | 0.10 | 26 | 1058.8 |
| 20260506011500 | 77 | 225 | 3.0 | 6.0 | 0.00 | 0.10 | 0.10 | 26 | 1058.6 |
| 20260506010956 | 77 | 262 | 4.0 | 8.0 | 0.00 | 0.10 | 0.10 | 26 | 1058.6 |
| 20260506010455 | 77 | 282 | 3.0 | 10.0 | 0.00 | 0.10 | 0.10 | 26 | 1058.5 |
| 20260506005951 | 77 | 268 | 2.0 | 6.0 | 0.00 | 0.10 | 0.10 | 26 | 1058.6 |
| 20260506005449 | 77 | 235 | 4.0 | 18.0 | 0.00 | 0.10 | 0.10 | 26 | 1058.5 |
| 20260506004944 | 78 | 269 | 5.0 | 8.0 | 0.00 | 0.10 | 0.10 | 25 | 1058.4 |
| 20260506004442 | 78 | 275 | 2.0 | 9.0 | 0.00 | 0.10 | 0.10 | 25 | 1058.3 |
| 20260506003938 | 78 | 268 | 2.0 | 12.0 | 0.00 | 0.10 | 0.10 | 25 | 1058.4 |
| 20260506003435 | 79 | 297 | 5.0 | 6.0 | 0.00 | 0.10 | 0.10 | 25 | 1058.5 |
| 20260506002931 | 79 | 231 | 8.0 | 9.0 | 0.00 | 0.10 | 0.10 | 25 | 1058.3 |
| 20260506002427 | 79 | 265 | 2.0 | 7.0 | 0.00 | 0.10 | 0.10 | 25 | 1058.4 |
| 20260506001923 | 78 | 284 | 2.0 | 8.0 | 0.00 | 0.10 | 0.10 | 26 | 1058.3 |
| 20260506001420 | 80 | 274 | 4.0 | 6.0 | 0.00 | 0.10 | 0.10 | 25 | 1058.3 |
| 20260506000917 | 79 | 267 | 6.0 | 6.0 | 0.00 | 0.10 | 0.10 | 25 | 1058.2 |
| 20260506000416 | 79 | 285 | 2.0 | 10.0 | 0.00 | 0.10 | 0.10 | 25 | 1058.1 |
| 20260505235911 | 79 | 275 | 4.0 | 12.0 | 0.00 | 0.10 | 0.10 | 26 | 1058.3 |
| 20260505235409 | 80 | 322 | 2.0 | 8.0 | 0.00 | 0.10 | 0.10 | 25 | 1058.2 |
| 20260505234906 | 79 | 304 | 2.0 | 8.0 | 0.00 | 0.10 | 0.10 | 26 | 1058.2 |
| 20260505234403 | 80 | 213 | 4.0 | 8.0 | 0.00 | 0.10 | 0.10 | 25 | 1058.1 |
| 20260505233900 | 78 | 248 | 5.0 | 7.0 | 0.00 | 0.10 | 0.10 | 26 | 1058.2 |
| 20260505233358 | 80 | 279 | 5.0 | 7.0 | 0.00 | 0.10 | 0.10 | 25 | 1058.1 |
| 20260505232855 | 80 | 219 | 2.0 | 10.0 | 0.00 | 0.10 | 0.10 | 25 | 1058.1 |
| 20260505232353 | 80 | 255 | 6.0 | 6.0 | 0.00 | 0.10 | 0.10 | 25 | 1058.2 |
| 20260505231849 | 80 | 250 | 2.0 | 9.0 | 0.00 | 0.10 | 0.10 | 26 | 1058.1 |
| 20260505231347 | 79 | 295 | 2.0 | 9.0 | 0.00 | 0.10 | 0.10 | 26 | 1058.1 |
| 20260505230845 | 79 | 312 | 4.0 | 9.0 | 0.00 | 0.10 | 0.10 | 27 | 1058.1 |
| 20260505230342 | 80 | 189 | 2.0 | 9.0 | 0.00 | 0.10 | 0.10 | 25 | 1058.2 |
| 20260505225839 | 81 | 249 | 2.0 | 8.0 | 0.00 | 0.10 | 0.10 | 26 | 1058.2 |
| 20260505225336 | 80 | 223 | 5.0 | 12.0 | 0.00 | 0.10 | 0.10 | 26 | 1058.3 |
| 20260505224830 | 80 | 278 | 4.0 | 13.0 | 0.00 | 0.10 | 0.10 | 26 | 1058.2 |
| 20260505224329 | 80 | 213 | 2.0 | 7.0 | 0.00 | 0.10 | 0.10 | 27 | 1058.2 |
| 20260505223826 | 80 | 249 | 4.0 | 9.0 | 0.00 | 0.10 | 0.10 | 27 | 1058.6 |
| 20260505223323 | 81 | 296 | 6.0 | 8.0 | 0.00 | 0.10 | 0.10 | 26 | 1058.3 |
| 20260505222818 | 81 | 273 | 3.0 | 9.0 | 0.00 | 0.10 | 0.10 | 26 | 1058.4 |
| 20260505222315 | 79 | 260 | 3.0 | 6.0 | 0.00 | 0.10 | 0.10 | 27 | 1058.4 |
| 20260505221812 | 80 | 274 | 5.0 | 9.0 | 0.00 | 0.10 | 0.10 | 26 | 1058.4 |
| 20260505221309 | 79 | 226 | 7.0 | 14.0 | 0.00 | 0.10 | 0.10 | 27 | 1058.6 |
| 20260505220806 | 80 | 246 | 3.0 | 8.0 | 0.00 | 0.10 | 0.10 | 26 | 1058.8 |
| 20260505220303 | 80 | 233 | 8.0 | 13.0 | 0.00 | 0.10 | 0.10 | 27 | 1058.6 |
| 20260505215801 | 80 | 238 | 4.0 | 13.0 | 0.00 | 0.10 | 0.10 | 27 | 1058.5 |
| 20260505215258 | 81 | 316 | 1.0 | 9.0 | 0.00 | 0.10 | 0.10 | 26 | 1058.6 |
| 20260505214756 | 81 | 261 | 3.0 | 15.0 | 0.00 | 0.10 | 0.10 | 26 | 1058.7 |
| 20260505214253 | 81 | 293 | 3.0 | 7.0 | 0.00 | 0.10 | 0.10 | 27 | 1058.9 |
| 20260505213750 | 80 | 249 | 3.0 | 12.0 | 0.00 | 0.10 | 0.10 | 27 | 1058.7 |
| 20260505213248 | 81 | 298 | 2.0 | 9.0 | 0.00 | 0.10 | 0.10 | 27 | 1058.8 |
| 20260505212743 | 80 | 233 | 3.0 | 5.0 | 0.00 | 0.10 | 0.10 | 28 | 1058.9 |
| 20260505212241 | 78 | 247 | 5.0 | 14.0 | 0.00 | 0.10 | 0.10 | 29 | 1058.9 |
| 20260505211738 | 80 | 294 | 4.0 | 7.0 | 0.00 | 0.10 | 0.10 | 28 | 1058.9 |
| 20260505211235 | 80 | 228 | 3.0 | 9.0 | 0.00 | 0.10 | 0.10 | 28 | 1058.9 |
| 20260505210731 | 80 | 256 | 3.0 | 4.0 | 0.00 | 0.10 | 0.10 | 29 | 1059.1 |
| 20260505210228 | 80 | 222 | 2.0 | 9.0 | 0.00 | 0.10 | 0.10 | 29 | 1059.1 |
| 20260505205726 | 79 | 287 | 4.0 | 5.0 | 0.00 | 0.10 | 0.10 | 30 | 1059.1 |
| 20260505205224 | 79 | 305 | 5.0 | 7.0 | 0.00 | 0.10 | 0.10 | 30 | 1059.1 |
| 20260505204720 | 79 | 209 | 2.0 | 12.0 | 0.00 | 0.10 | 0.10 | 31 | 1059.3 |
| 20260505204218 | 78 | 265 | 3.0 | 8.0 | 0.00 | 0.10 | 0.10 | 32 | 1059.1 |
| 20260505203715 | 79 | 248 | 2.0 | 9.0 | 0.00 | 0.10 | 0.10 | 32 | 1059.4 |
| 20260505203212 | 81 | 213 | 2.0 | 11.0 | 0.00 | 0.10 | 0.10 | 31 | 1059.5 |
| 20260505202707 | 82 | 244 | 2.0 | 8.0 | 0.00 | 0.10 | 0.10 | 31 | 1059.4 |
| 20260505202204 | 80 | 265 | 2.0 | 8.0 | 0.00 | 0.10 | 0.10 | 31 | 1059.4 |
| 20260505201700 | 80 | 240 | 12.0 | 16.0 | 0.00 | 0.10 | 0.10 | 32 | 1059.7 |
| 20260505201158 | 80 | 262 | 3.0 | 10.0 | 0.00 | 0.10 | 0.10 | 34 | 1059.4 |
| 20260505200656 | 80 | 252 | 3.0 | 7.0 | 0.00 | 0.10 | 0.10 | 34 | 1059.4 |
| 20260505200153 | 79 | 281 | 4.0 | 6.0 | 0.00 | 0.10 | 0.10 | 35 | 1059.4 |
| 20260505195648 | 78 | 257 | 4.0 | 9.0 | 0.00 | 0.10 | 0.10 | 36 | 1059.6 |
| 20260505195146 | 81 | 281 | 2.0 | 6.0 | 0.00 | 0.10 | 0.10 | 34 | 1059.6 |
| 20260505194643 | 81 | 264 | 3.0 | 9.0 | 0.00 | 0.10 | 0.10 | 34 | 1059.7 |
| 20260505194139 | 79 | 244 | 3.0 | 8.0 | 0.00 | 0.10 | 0.10 | 36 | 1059.6 |
| 20260505193636 | 80 | 268 | 4.0 | 6.0 | 0.00 | 0.10 | 0.10 | 35 | 1059.7 |
| 20260505193133 | 79 | 293 | 2.0 | 9.0 | 0.00 | 0.10 | 0.10 | 36 | 1059.6 |
| 20260505192632 | 79 | 223 | 4.0 | 9.0 | 0.00 | 0.10 | 0.10 | 36 | 1059.8 |
| 20260505192129 | 79 | 197 | 4.0 | 7.0 | 0.00 | 0.10 | 0.10 | 37 | 1059.8 |
| 20260505191627 | 78 | 231 | 3.0 | 9.0 | 0.00 | 0.10 | 0.10 | 36 | 1059.9 |
| 20260505191125 | 79 | 209 | 3.0 | 9.0 | 0.00 | 0.10 | 0.10 | 37 | 1060.0 |
| 20260505190620 | 79 | 228 | 5.0 | 9.0 | 0.00 | 0.10 | 0.10 | 36 | 1060.0 |
| 20260505190115 | 80 | 261 | 4.0 | 8.0 | 0.00 | 0.10 | 0.10 | 35 | 1060.1 |
| 20260505185612 | 78 | 243 | 2.0 | 6.0 | 0.00 | 0.10 | 0.10 | 36 | 1060.1 |
| 20260505185109 | 77 | 218 | 5.0 | 8.0 | 0.00 | 0.10 | 0.10 | 37 | 1060.3 |
| 20260505184605 | 77 | 223 | 5.0 | 5.0 | 0.00 | 0.10 | 0.10 | 37 | 1060.2 |
| 20260505184102 | 77 | 269 | 2.0 | 9.0 | 0.00 | 0.10 | 0.10 | 38 | 1060.3 |
| 20260505183559 | 77 | 178 | 1.0 | 4.0 | 0.00 | 0.10 | 0.10 | 39 | 1060.3 |
| 20260505183057 | 76 | 199 | 4.0 | 11.0 | 0.00 | 0.10 | 0.10 | 39 | 1060.7 |
| 20260505182552 | 75 | 220 | 3.0 | 6.0 | 0.00 | 0.10 | 0.10 | 41 | 1060.4 |
| 20260505182049 | 73 | 235 | 3.0 | 3.0 | 0.00 | 0.10 | 0.10 | 42 | 1060.4 |
| 20260505181546 | 74 | 227 | 6.0 | 10.0 | 0.00 | 0.10 | 0.10 | 42 | 1060.7 |
| 20260505181044 | 75 | 228 | 4.0 | 7.0 | 0.00 | 0.10 | 0.10 | 42 | 1060.4 |
| 20260505180539 | 75 | 301 | 4.0 | 5.0 | 0.00 | 0.10 | 0.10 | 41 | 1060.3 |
| 20260505180037 | 74 | 243 | 3.0 | 6.0 | 0.00 | 0.10 | 0.10 | 42 | 1060.6 |
| 20260505175537 | 75 | 245 | 2.0 | 7.0 | 0.00 | 0.10 | 0.10 | 41 | 1060.4 |
| 20260505175034 | 75 | 258 | 2.0 | 4.0 | 0.00 | 0.10 | 0.10 | 41 | 1060.4 |
| 20260505174531 | 74 | 292 | 3.0 | 6.0 | 0.00 | 0.10 | 0.10 | 45 | 1060.4 |
| 20260505174027 | 73 | 237 | 3.0 | 5.0 | 0.00 | 0.10 | 0.10 | 43 | 1060.4 |
| 20260505173524 | 74 | 216 | 3.0 | 8.0 | 0.00 | 0.10 | 0.10 | 44 | 1060.4 |
| 20260505173021 | 73 | 229 | 4.0 | 8.0 | 0.00 | 0.10 | 0.10 | 45 | 1060.4 |
| 20260505172519 | 76 | 249 | 3.0 | 6.0 | 0.00 | 0.10 | 0.10 | 44 | 1060.6 |
| 20260505172015 | 76 | 190 | 3.0 | 6.0 | 0.00 | 0.10 | 0.10 | 44 | 1060.3 |
| 20260505171510 | 75 | 214 | 3.0 | 7.0 | 0.00 | 0.10 | 0.10 | 46 | 1060.7 |
| 20260505171008 | 72 | 246 | 2.0 | 10.0 | 0.00 | 0.10 | 0.10 | 49 | 1060.3 |
| 20260505170504 | 71 | 229 | 3.0 | 6.0 | 0.00 | 0.10 | 0.10 | 50 | 1060.6 |
| 20260505165959 | 72 | 238 | 4.0 | 6.0 | 0.00 | 0.10 | 0.10 | 50 | 1060.7 |
| 20260505165456 | 71 | 256 | 1.0 | 7.0 | 0.00 | 0.10 | 0.10 | 51 | 1060.6 |
| 20260505164951 | 71 | 284 | 2.0 | 5.0 | 0.00 | 0.10 | 0.10 | 52 | 1060.2 |
| 20260505164448 | 72 | 223 | 2.0 | 6.0 | 0.00 | 0.10 | 0.10 | 50 | 1060.4 |
| 20260505163946 | 73 | 232 | 5.0 | 9.0 | 0.00 | 0.10 | 0.10 | 49 | 1060.7 |
| 20260505163445 | 75 | 274 | 2.0 | 5.0 | 0.00 | 0.10 | 0.10 | 47 | 1060.4 |
| 20260505162944 | 72 | 225 | 2.0 | 6.0 | 0.00 | 0.10 | 0.10 | 50 | 1060.3 |
| 20260505162439 | 73 | 228 | 4.0 | 5.0 | 0.00 | 0.10 | 0.10 | 49 | 1060.6 |
| 20260505161936 | 74 | 306 | 1.0 | 6.0 | 0.00 | 0.10 | 0.10 | 50 | 1060.3 |
| 20260505161432 | 74 | 227 | 2.0 | 4.0 | 0.00 | 0.10 | 0.10 | 49 | 1060.6 |